This is the latest recevied weather packets stored in our database for station/object W2GRK-15. If no packets are shown the sender has not sent any weather packets the latest 10 day(s).
| Time | Temp. | Humidity | Pressure | Rain* | Wind** | Luminosity | Snow |
|---|---|---|---|---|---|---|---|
| 1777926377 | 22.78° C | 33% | 1010 hPa | 0 mm | - | 442 W/m² | - |
| 1777926200 | 22.78° C | 32% | 1009.9 hPa | 0 mm | - | 171 W/m² | - |
| 1777926088 | 23.33° C | 33% | 1009.9 hPa | 0 mm | - | 206 W/m² | - |
| 1777925958 | 23.33° C | 33% | 1009.9 hPa | 0 mm | - | 451 W/m² | - |
| 1777925717 | 23.33° C | 32% | 1010 hPa | 0 mm | - | 449 W/m² | - |
| 1777924586 | 23.33° C | 34% | 1010.1 hPa | 0 mm | - | 494 W/m² | - |
| 1777924364 | 23.33° C | 35% | 1010.2 hPa | 0 mm | - | 503 W/m² | - |
| 1777924167 | 23.33° C | 35% | 1010.3 hPa | 0 mm | - | 518 W/m² | - |
| 1777923990 | 23.33° C | 33% | 1010.2 hPa | 0 mm | - | 527 W/m² | - |
| 1777923201 | 23.33° C | 33% | 1010.2 hPa | 0 mm | - | 561 W/m² | - |
| 1777922383 | 22.78° C | 34% | 1010.3 hPa | 0 mm | - | 598 W/m² | - |
| 1777922206 | 22.78° C | 34% | 1010.3 hPa | 0 mm | - | 606 W/m² | - |
| 1777921945 | 23.33° C | 33% | 1010.6 hPa | 0 mm | - | 613 W/m² | - |
| 1777921880 | 23.33° C | 36% | 1010.7 hPa | 0 mm | - | 614 W/m² | - |
| 1777921639 | 22.78° C | 33% | 1010.5 hPa | 0 mm | - | 625 W/m² | - |
| 1777921305 | 22.78° C | 34% | 1010.6 hPa | 0 mm | - | 632 W/m² | - |
| 1777920757 | 22.22° C | 35% | 1010.8 hPa | 0 mm | - | 649 W/m² | - |
| 1777920624 | 22.78° C | 35% | 1011 hPa | 0 mm | - | 654 W/m² | - |
| 1777920446 | 22.78° C | 34% | 1010.9 hPa | 0 mm | - | 660 W/m² | - |
| 1777920205 | 22.22° C | 34% | 1011.1 hPa | 0 mm | - | 671 W/m² | - |
| 1777920028 | 22.22° C | 36% | 1010.9 hPa | 0 mm | - | 674 W/m² | - |
| 1777919722 | 22.78° C | 34% | 1011.1 hPa | 0 mm | - | 683 W/m² | - |
| 1777918776 | 22.22° C | 35% | 1011.2 hPa | 0 mm | - | 712 W/m² | - |
| 1777918530 | 22.22° C | 36% | 1011.5 hPa | 0 mm | - | 721 W/m² | - |
| 1777918466 | 22.22° C | 35% | 1011.3 hPa | 0 mm | - | 722 W/m² | - |
* Rain latest hour (hover to see other rain measurements)
** Current wind speed in m/s (hover to see current wind gust speed)